Date,TemperatureHighF,TemperatureAvgF,TemperatureLowF,DewpointHighF,DewpointAvgF,DewpointLowF,HumidityHigh,HumidityAvg,HumidityLow,PressureMaxIn,PressureMinIn,WindSpeedMaxMPH,WindSpeedAvgMPH,GustSpeedMaxMPH,PrecipitationSumIn
2013-1-1,51.4,46.0,38.3,45.9,40.5,33.7,93,81,64,30.16,29.98,12,3,16,0.01
2013-1-2,53.7,50.0,42.3,41.7,37.5,31.7,93,63,49,30.44,30.16,22,13,33,0.00
2013-1-3,58.5,51.2,42.4,42.9,34.1,28.2,74,53,38,30.68,30.43,15,6,19,0.00
2013-1-4,64.1,49.3,37.5,49.9,39.4,31.0,81,69,53,30.67,30.49,7,2,8,0.00
2013-1-5,75.0,59.3,43.4,46.5,34.0,20.5,79,47,16,30.49,30.27,14,6,18,0.00
2013-1-6,69.0,59.8,45.2,48.6,40.1,22.5,93,55,18,30.34,30.26,14,5,18,0.00
2013-1-7,59.5,50.1,42.0,50.5,43.5,36.3,94,79,56,30.33,30.19,9,3,11,0.00
2013-1-8,55.0,45.1,37.3,50.9,43.1,36.3,97,93,83,30.38,30.31,5,1,7,0.02
2013-1-9,51.2,46.7,44.0,48.7,45.4,43.4,98,95,88,30.32,30.15,4,2,6,0.01
2013-1-10,60.0,47.8,39.6,48.5,42.9,38.3,95,84,60,30.18,30.09,6,2,8,0.00
2013-1-11,58.5,48.5,38.8,40.6,37.2,34.1,91,67,42,30.22,30.14,12,5,16,0.00
2013-1-12,55.3,42.7,35.6,46.2,38.5,33.5,93,86,56,30.18,29.93,4,1,6,0.00
2013-1-13,49.7,45.4,40.4,44.6,40.0,37.0,95,82,66,29.94,29.79,14,5,17,0.17
2013-1-14,51.7,45.8,38.2,37.7,33.3,29.3,89,62,49,30.03,29.93,15,6,22,0.00
2013-1-15,50.7,41.0,34.3,40.8,33.2,29.6,90,75,55,30.02,29.83,19,6,26,0.00
2013-1-16,49.9,42.5,35.5,42.1,34.9,28.2,87,75,58,29.93,29.62,13,4,20,0.00
2013-1-17,51.7,44.3,34.4,38.5,27.4,20.8,86,54,30,29.88,29.73,15,7,19,0.00
2013-1-18,50.6,41.3,31.5,45.4,34.2,24.7,86,76,55,29.86,29.46,5,1,7,0.00
2013-1-19,58.9,49.3,42.8,55.0,45.6,38.9,93,87,81,29.44,29.00,19,5,21,0.05
2013-1-20,56.9,48.9,40.2,47.7,39.2,27.7,92,71,35,29.57,29.09,8,2,12,0.00
2013-1-21,53.9,44.2,38.1,45.4,39.0,32.1,91,82,58,29.85,29.53,8,2,12,0.16
2013-1-22,55.3,44.0,32.8,37.3,34.0,30.7,93,70,45,29.86,29.58,14,4,19,0.01
2013-1-23,50.6,46.8,36.4,37.4,34.0,29.5,85,61,49,29.79,29.52,19,9,28,0.01
2013-1-24,51.9,42.7,34.5,39.5,33.7,26.4,89,72,46,29.82,29.65,22,8,29,0.00
2013-1-25,62.0,50.8,37.8,33.6,21.1,8.6,69,34,12,29.92,29.80,21,8,31,0.00
2013-1-26,54.4,43.8,35.1,46.3,38.0,28.0,94,80,67,30.13,29.79,11,2,15,0.02
2013-1-27,52.1,44.8,35.7,45.2,41.2,34.4,96,87,74,30.13,29.83,7,2,8,0.01
2013-1-28,59.2,53.2,43.1,46.7,39.1,33.7,91,60,48,30.36,29.89,22,12,31,0.02
2013-1-29,59.3,47.5,38.3,50.4,42.6,35.9,92,84,65,30.40,30.33,6,2,7,0.00
2013-1-30,61.0,48.7,38.8,46.6,41.4,35.3,93,77,51,30.38,30.25,4,1,7,0.00
2013-1-31,67.9,53.9,44.4,53.0,46.8,40.4,92,78,55,30.44,30.33,6,2,6,0.00
2013-2-1,64.4,52.7,44.2,52.8,48.0,42.3,94,85,64,30.35,29.69,6,2,8,0.00
2013-2-2,55.4,49.9,43.7,49.3,37.6,28.8,93,64,44,29.91,29.58,23,14,39,0.16
2013-2-3,50.4,46.2,41.5,30.2,20.5,8.4,58,37,19,30.33,29.91,33,20,48,0.00
2013-2-4,60.5,46.9,33.7,43.5,30.1,16.2,73,53,28,30.36,30.27,13,3,17,0.00
2013-2-5,61.3,48.6,37.4,49.0,40.6,32.1,87,74,56,30.31,29.93,16,3,28,0.00
2013-2-6,55.4,46.8,38.7,41.5,34.9,28.3,87,64,41,29.95,29.75,18,7,23,0.00
2013-2-7,47.4,44.6,41.9,35.5,27.0,22.7,67,50,40,30.11,29.85,28,18,43,0.00
2013-2-8,44.6,42.3,37.1,36.7,30.5,24.0,79,63,47,30.09,29.95,16,7,26,0.00
2013-2-9,50.5,43.9,39.1,36.1,27.7,23.1,74,53,35,30.19,30.09,17,9,26,0.00
2013-2-10,54.6,47.0,38.5,43.4,38.0,35.5,91,72,50,30.12,29.63,15,4,24,0.02
2013-2-11,53.6,47.7,42.9,42.6,38.5,32.6,86,71,46,29.67,29.55,6,2,6,0.02
2013-2-12,54.3,47.2,38.0,37.7,32.5,24.5,85,59,33,29.98,29.62,21,10,32,0.01
2013-2-13,55.5,50.0,42.5,37.8,34.1,30.3,69,55,41,30.17,29.98,21,11,36,0.00
2013-2-14,58.6,49.4,40.0,46.1,40.5,31.5,87,72,57,30.23,30.15,11,3,17,0.00
2013-2-15,57.3,50.8,40.1,44.7,39.3,34.5,95,67,49,30.23,30.11,15,6,23,0.00
2013-2-16,54.8,50.1,46.7,39.0,36.9,33.0,69,61,47,30.23,30.15,7,3,8,0.00
2013-2-17,52.9,49.8,46.5,47.7,43.4,38.2,85,78,69,30.15,29.98,4,1,7,0.00
2013-2-18,54.2,51.2,47.9,50.4,47.9,45.6,95,89,78,30.09,29.92,5,2,10,0.20
2013-2-19,55.6,48.6,42.3,49.1,44.0,39.0,97,85,65,30.09,29.99,11,3,16,0.01
2013-2-20,57.0,45.6,35.9,48.4,41.6,34.5,95,86,70,30.01,29.89,6,1,9,0.01
2013-2-21,52.2,45.3,36.2,45.6,41.5,34.9,96,87,72,29.93,29.71,5,1,8,0.09
2013-2-22,46.5,42.3,39.8,45.1,38.3,35.8,95,86,74,29.72,29.64,6,3,11,0.04
2013-2-23,42.8,38.6,34.5,38.0,23.6,14.3,92,55,41,29.90,29.56,21,13,29,0.01
2013-2-24,44.0,37.8,32.9,23.2,20.0,17.1,61,49,36,30.04,29.89,20,12,27,0.00
2013-2-25,47.6,41.1,35.7,27.9,25.2,21.2,69,53,41,30.17,30.01,18,11,22,0.00
2013-2-26,49.9,40.6,32.1,32.7,27.8,24.2,77,61,45,30.23,30.16,9,3,13,0.00
2013-2-27,51.4,45.2,37.5,40.8,35.2,28.4,83,68,59,30.27,30.19,9,4,12,0.00
2013-2-28,53.2,47.4,39.3,45.6,41.4,36.8,94,80,65,30.23,30.06,9,4,16,0.15
2013-3-1,53.6,49.2,45.3,46.7,43.0,36.8,94,80,54,30.06,29.94,13,7,21,0.94
2013-3-2,55.5,50.5,42.3,43.7,41.1,37.8,90,70,60,30.15,30.02,9,4,16,0.00
2013-3-3,59.6,47.1,36.7,50.8,41.8,35.4,95,83,53,30.14,30.00,11,3,13,0.00
2013-3-4,55.9,48.8,36.3,51.9,44.8,34.5,94,86,69,30.04,29.91,10,3,14,0.00
2013-3-5,56.9,54.7,53.3,53.6,52.4,50.5,96,92,86,29.91,29.52,14,9,22,1.45
2013-3-6,55.7,54.2,52.9,54.7,52.8,50.3,97,95,92,29.57,29.37,15,8,29,0.43
2013-3-7,62.2,54.6,48.9,56.3,51.3,47.2,96,89,74,29.71,29.51,15,3,16,0.00
2013-3-8,64.1,57.5,52.3,54.1,51.3,47.0,93,80,62,29.77,29.47,9,3,14,0.00
2013-3-9,63.8,55.0,49.1,52.7,50.2,47.2,95,85,60,29.73,29.64,11,3,14,0.02
2013-3-10,64.3,53.5,45.9,53.5,48.2,44.3,95,83,61,29.69,29.52,9,2,9,0.00
2013-3-11,62.3,52.9,46.0,52.0,45.6,42.4,91,77,51,29.64,29.53,10,3,15,0.02
2013-3-12,59.1,49.6,43.8,47.8,44.7,38.9,95,84,65,29.63,29.53,12,3,16,1.03
2013-3-13,48.1,42.6,39.1,42.9,33.7,18.4,96,73,40,29.67,29.45,25,10,40,0.00
2013-3-14,48.1,43.4,40.5,31.2,25.5,18.2,67,49,39,29.90,29.66,28,20,45,0.00
2013-3-15,54.8,46.0,39.7,34.5,25.8,22.2,71,46,29,30.12,29.88,21,12,31,0.00
2013-3-16,58.0,47.1,33.9,46.8,39.6,30.9,89,76,50,30.12,29.86,18,7,25,0.00
2013-3-17,58.9,54.5,50.9,49.4,47.1,43.8,91,77,59,29.86,29.49,13,7,18,0.00
2013-3-18,57.2,50.5,43.5,48.6,44.3,39.9,92,80,59,29.80,29.44,11,3,16,0.05
2013-3-19,56.9,48.7,39.7,50.7,43.9,37.4,93,84,66,29.83,29.62,11,3,15,0.00
2013-3-20,61.3,53.2,47.6,49.1,44.5,34.4,96,75,38,30.12,29.62,14,4,23,0.14
2013-3-21,63.5,53.2,42.4,52.0,46.9,40.6,94,80,57,30.14,29.94,9,3,14,0.00
2013-3-22,66.9,54.6,45.0,55.2,48.1,43.2,96,80,54,29.94,29.68,16,5,21,0.00
2013-3-23,58.2,52.9,47.3,53.2,49.8,44.8,95,89,79,29.77,29.64,7,2,7,0.00
2013-3-24,57.2,52.5,48.2,52.5,49.9,46.6,97,91,81,29.67,29.57,6,2,10,0.00
2013-3-25,65.9,53.4,44.1,50.1,46.3,43.0,96,79,52,29.73,29.62,10,3,12,0.00
2013-3-26,61.1,54.4,48.6,49.5,47.5,44.3,92,78,59,29.70,29.60,10,3,13,0.02
2013-3-27,52.7,51.6,50.7,50.9,49.9,48.9,97,94,88,29.75,29.62,4,1,9,0.02
2013-3-28,60.8,54.5,51.3,55.4,52.7,50.2,97,94,80,29.88,29.68,7,2,8,0.09
2013-3-29,66.9,57.3,51.3,57.1,53.3,50.5,97,87,65,29.88,29.57,10,3,18,0.01
2013-3-30,63.4,56.5,47.2,53.4,50.6,45.0,93,81,53,29.82,29.52,11,4,17,0.03
2013-3-31,61.6,52.1,42.6,50.4,46.6,41.4,97,83,63,29.82,29.68,10,3,15,0.01
2013-4-1,51.9,50.0,47.3,49.7,47.6,45.4,97,91,82,29.68,29.46,15,4,18,0.94
2013-4-2,63.4,51.7,42.3,51.5,46.5,41.1,97,84,54,29.83,29.65,9,2,17,0.02
2013-4-3,59.7,51.6,42.2,51.0,46.8,41.1,96,84,68,29.83,29.68,14,4,19,0.01
2013-4-4,58.3,53.9,50.4,53.7,50.5,48.4,95,88,78,29.68,29.55,7,3,9,0.15
2013-4-5,51.8,49.0,46.4,49.3,42.6,36.2,94,79,60,29.84,29.63,12,3,12,0.02
2013-4-6,52.4,48.6,46.1,38.6,35.4,32.7,72,60,50,30.00,29.82,20,11,25,0.02
2013-4-7,59.2,51.6,43.5,48.2,41.6,36.1,84,69,58,30.04,29.90,18,5,24,0.00
2013-4-8,58.2,50.6,44.2,48.8,45.6,41.8,93,83,64,29.91,29.83,5,2,9,0.00
2013-4-9,62.9,53.7,39.7,52.0,46.4,37.3,94,77,54,30.00,29.76,9,3,11,0.00
2013-4-10,65.8,57.8,50.2,55.0,49.6,44.7,90,76,47,30.06,29.95,15,5,22,0.00
2013-4-11,75.6,60.0,51.5,57.8,52.9,49.5,94,80,48,30.00,29.71,15,4,23,0.00
2013-4-12,69.9,58.1,49.9,54.5,51.4,47.6,95,80,47,30.11,29.88,13,4,20,0.00
2013-4-13,68.3,57.5,47.6,53.7,49.4,45.5,93,76,46,30.29,30.12,11,3,15,0.00
2013-4-14,71.1,58.7,45.1,54.9,47.7,41.3,94,71,40,30.30,30.26,18,5,22,0.00
2013-4-15,73.7,61.8,48.9,56.6,48.9,41.3,85,64,41,30.29,30.16,13,4,15,0.00
2013-4-16,73.3,61.4,49.7,54.8,50.0,46.0,91,69,41,30.25,30.18,6,2,9,0.00
2013-4-17,78.8,66.0,55.1,57.2,51.4,45.7,87,63,32,30.25,30.15,13,4,16,0.00
2013-4-18,68.5,61.1,51.3,56.3,53.3,48.6,92,76,60,30.24,30.16,7,2,13,0.00
2013-4-19,63.7,57.4,49.1,52.7,44.9,35.8,82,64,46,30.24,30.14,18,9,28,0.12
2013-4-20,64.7,58.2,51.2,40.9,34.0,25.7,59,41,24,30.24,30.09,19,12,34,0.00
2013-4-21,64.8,57.1,47.8,48.2,40.3,35.1,79,55,34,30.19,30.09,12,6,17,0.00
2013-4-22,66.7,59.1,51.2,48.0,39.2,29.0,81,50,30,30.15,30.03,14,6,19,0.00
2013-4-23,66.3,59.4,52.0,49.5,43.9,39.6,73,57,42,30.31,30.15,10,4,14,0.00
2013-4-24,63.9,58.0,50.0,54.7,50.0,44.0,85,75,63,30.40,30.31,6,2,11,0.00
2013-4-25,62.9,58.8,55.7,56.7,52.5,47.9,95,80,68,30.33,30.16,7,3,10,0.42
2013-4-26,65.4,59.9,56.7,56.9,55.4,51.3,96,85,71,30.19,29.88,6,3,11,0.01
2013-4-27,58.9,51.8,45.4,52.3,45.2,37.7,91,79,58,29.89,29.75,13,5,20,0.47
2013-4-28,52.0,48.8,45.6,44.7,40.3,35.3,92,73,55,29.99,29.84,11,5,15,0.24
2013-4-29,57.7,52.0,47.0,53.9,48.5,44.0,92,88,81,29.99,29.83,8,3,13,0.35
2013-4-30,69.9,58.8,53.6,58.9,53.2,50.3,96,83,53,30.02,29.85,15,4,20,0.09
2013-5-1,71.0,58.6,46.8,50.7,46.6,38.8,93,68,36,30.08,30.01,15,4,22,0.00
2013-5-2,67.3,57.5,46.4,52.7,48.5,44.2,93,74,52,30.09,30.02,8,3,11,0.00
2013-5-3,69.1,60.1,47.6,52.3,48.0,44.0,91,66,48,30.13,30.06,9,3,16,0.00
2013-5-4,70.3,61.5,51.4,51.8,47.9,44.0,80,62,39,30.16,30.10,11,3,11,0.00
2013-5-5,70.9,61.6,50.7,53.0,48.8,46.0,86,65,43,30.16,30.11,6,3,10,0.00
2013-5-6,78.6,64.7,50.5,56.4,50.7,45.9,89,64,33,30.16,30.05,11,3,13,0.00
2013-5-7,73.0,66.1,58.8,58.8,52.3,42.8,87,64,35,30.08,30.02,7,2,11,0.00
2013-5-8,77.4,66.9,59.5,61.2,55.8,51.4,91,69,45,30.06,29.97,7,2,11,0.06
2013-5-9,73.7,66.8,61.4,61.5,59.2,56.9,92,78,60,30.07,29.93,11,3,17,0.00
2013-5-10,67.2,62.0,58.5,59.9,51.0,44.0,89,68,53,30.16,30.00,12,4,14,0.00
2013-5-11,67.3,62.3,57.3,53.9,47.7,42.7,72,59,49,30.21,30.12,8,4,13,0.00
2013-5-12,69.1,62.6,58.1,52.8,46.6,42.9,70,56,45,30.24,30.16,8,4,13,0.00
2013-5-13,71.2,64.2,57.0,57.9,51.5,46.0,77,63,56,30.24,30.07,7,4,10,0.00
2013-5-14,68.1,61.4,53.9,59.9,55.7,50.9,91,82,68,30.09,29.76,10,3,13,0.02
2013-5-15,65.8,60.1,55.3,57.9,53.8,44.1,92,80,63,29.77,29.59,12,4,14,0.01
2013-5-16,58.4,54.9,51.3,51.4,46.5,41.4,89,74,62,29.64,29.52,11,5,14,0.09
2013-5-17,67.6,57.5,48.0,50.9,47.9,45.8,94,73,48,29.71,29.58,16,6,23,0.01
2013-5-18,69.1,62.4,55.9,57.8,50.4,42.3,89,67,43,29.81,29.57,18,9,26,0.08
2013-5-19,62.0,55.3,50.4,51.8,48.0,44.9,93,77,61,30.13,29.81,10,3,14,0.17
2013-5-20,62.6,55.5,50.2,51.2,49.2,47.6,95,80,63,30.16,30.10,6,2,7,0.01
2013-5-21,67.3,58.2,48.6,52.4,48.1,44.9,91,71,50,30.15,29.94,11,2,19,0.00
2013-5-22,72.4,64.2,53.5,54.0,50.0,44.4,87,61,46,29.98,29.83,23,11,39,0.00
2013-5-23,71.5,63.5,58.7,53.6,47.1,37.8,70,55,42,29.98,29.87,23,9,28,0.00
2013-5-24,64.6,57.2,53.3,49.3,41.3,33.4,86,57,32,30.07,29.94,18,8,25,0.07
2013-5-25,60.7,54.7,50.0,50.4,46.8,41.0,90,76,50,30.17,29.98,13,4,15,0.16
2013-5-26,63.6,55.7,43.2,54.7,46.7,40.1,92,73,47,30.18,30.03,10,4,13,0.00
2013-5-27,68.3,59.6,50.9,58.3,53.0,48.7,93,80,57,30.03,29.85,17,4,24,0.00
2013-5-28,66.3,55.9,51.4,57.8,51.5,46.6,94,85,62,29.90,29.74,10,2,19,0.19
2013-5-29,59.0,53.5,50.1,50.9,48.5,46.7,92,84,68,29.92,29.83,9,2,11,0.31
2013-5-30,63.9,55.6,44.6,55.3,48.8,43.0,95,79,51,29.96,29.91,9,2,17,0.03
2013-5-31,70.0,61.4,53.2,54.8,49.8,44.4,95,69,43,30.01,29.87,21,8,30,0.18
2013-6-1,75.9,68.7,61.8,50.9,47.9,45.0,62,48,36,30.06,29.93,26,17,36,0.00
2013-6-2,75.8,70.0,63.8,52.2,49.2,44.2,66,48,33,30.10,30.03,19,13,32,0.00
2013-6-3,75.6,68.5,59.0,53.6,49.2,43.4,71,51,33,30.10,30.03,14,6,19,0.00
2013-6-4,72.4,64.4,58.0,59.7,55.1,50.3,85,73,53,30.09,30.01,12,4,15,0.00
2013-6-5,77.3,65.5,55.5,60.1,55.5,52.4,93,72,45,30.05,29.97,14,5,20,0.00
2013-6-6,77.2,66.7,56.2,59.3,53.8,48.0,88,66,39,30.09,30.03,12,5,19,0.00
2013-6-7,82.1,66.7,57.4,63.6,56.4,49.1,91,72,32,30.09,30.00,13,4,21,0.00
2013-6-8,73.0,65.9,58.5,62.6,57.7,52.1,92,76,54,30.04,29.86,17,6,23,0.33
2013-6-9,73.6,63.7,56.2,59.6,55.5,51.9,93,76,50,29.93,29.76,14,5,22,0.12
2013-6-10,74.2,64.7,55.3,59.5,56.5,53.6,95,76,54,30.07,29.92,5,2,9,0.01
2013-6-11,81.1,69.4,57.5,62.1,57.9,52.8,92,69,39,30.14,30.05,6,2,11,0.00
2013-6-12,85.8,75.0,63.8,65.0,61.6,59.4,87,65,44,30.18,30.09,7,3,13,0.00
2013-6-13,89.0,73.9,65.3,65.1,61.5,55.6,85,68,33,30.15,30.04,11,4,17,0.00
2013-6-14,86.1,72.9,63.5,63.9,59.9,55.0,84,65,44,30.15,29.95,16,6,24,0.00
2013-6-15,78.6,69.8,63.3,65.3,62.7,59.7,90,79,56,30.10,30.06,7,3,11,0.00
2013-6-16,86.4,74.3,61.3,63.5,59.5,55.1,92,64,36,30.10,29.95,17,6,21,0.00
2013-6-17,74.5,69.8,63.1,66.9,64.6,59.7,91,84,74,29.98,29.86,7,3,12,0.00
2013-6-18,75.0,70.0,66.4,66.2,65.2,63.7,93,85,69,29.92,29.83,5,2,8,0.00
2013-6-19,81.7,73.1,67.2,67.8,62.1,50.5,94,72,36,29.99,29.83,14,5,20,0.00
2013-6-20,71.8,67.0,60.2,63.6,60.1,55.7,87,78,68,30.13,29.99,7,3,13,0.00
2013-6-21,74.1,66.1,58.3,63.0,60.2,55.9,93,82,60,30.21,30.10,6,2,11,0.17
2013-6-22,73.1,66.8,58.3,65.5,60.9,56.6,95,82,64,30.20,30.14,6,3,10,0.01
2013-6-23,70.9,66.1,60.5,64.6,58.8,50.4,94,78,58,30.24,30.15,9,2,10,0.02
2013-6-24,75.5,67.0,60.2,51.7,47.8,43.8,61,51,39,30.28,30.21,14,8,23,0.00
2013-6-25,78.5,69.7,61.9,53.5,49.0,45.7,56,48,36,30.28,30.20,13,8,22,0.00
2013-6-26,77.9,70.9,62.6,54.8,48.4,42.2,62,46,30,30.27,30.22,14,7,23,0.00
2013-6-27,77.3,70.3,61.7,59.3,52.1,47.2,69,53,35,30.27,30.17,10,5,15,0.00
2013-6-28,79.0,72.0,65.3,60.2,53.3,48.3,65,52,40,30.27,30.19,15,7,17,0.00
2013-6-29,79.6,71.5,62.9,62.8,59.5,54.9,85,67,49,30.28,30.22,9,3,11,0.00
2013-6-30,80.9,73.0,66.2,63.5,59.0,54.0,84,62,40,30.26,30.10,11,5,15,0.00
2013-7-1,75.8,69.7,62.4,63.5,60.1,56.7,91,73,54,30.12,30.06,7,2,9,0.00
2013-7-2,78.3,68.8,60.3,66.0,62.4,57.7,92,81,58,30.12,30.04,14,5,16,0.00
2013-7-3,76.6,70.6,65.6,66.5,64.6,62.4,92,82,69,30.14,30.04,7,3,10,0.00
2013-7-4,83.0,74.2,67.6,66.3,62.3,58.4,89,68,45,30.20,30.13,11,3,14,0.00
2013-7-5,82.3,73.7,63.3,63.7,60.2,55.2,91,65,40,30.26,30.20,8,3,13,0.00
2013-7-6,89.3,76.8,64.3,63.7,59.6,55.4,83,58,32,30.25,30.16,8,3,13,0.01
2013-7-7,89.2,80.6,69.5,64.4,61.6,59.3,74,54,39,30.20,30.14,7,3,10,0.00
2013-7-8,86.0,77.3,69.1,66.4,62.3,57.0,82,61,39,30.22,30.15,7,3,11,0.00
2013-7-9,89.3,78.1,63.8,67.1,60.7,57.4,81,57,35,30.20,30.04,11,4,16,0.00
2013-7-10,87.6,75.5,66.6,71.8,64.8,59.0,85,70,50,30.06,29.91,10,3,18,0.00
2013-7-11,80.2,74.6,68.0,69.6,66.7,64.3,89,77,60,29.97,29.93,6,2,9,0.00
2013-7-12,85.8,77.2,67.4,67.9,64.1,60.4,84,66,45,30.06,29.97,9,4,12,0.00
2013-7-13,83.8,76.1,69.8,72.0,68.2,64.1,87,77,63,30.07,30.00,7,2,10,0.00
2013-7-14,82.6,76.2,71.1,69.9,64.6,57.0,85,69,43,30.14,30.05,8,3,13,0.00
2013-7-15,87.9,78.5,65.8,64.8,61.6,59.1,80,58,39,30.15,30.09,8,4,11,0.00
2013-7-16,86.2,77.2,68.1,70.0,63.6,57.9,90,65,44,30.19,30.10,18,3,18,0.50
2013-7-17,88.4,75.8,66.6,69.9,64.1,59.0,90,70,40,30.17,30.10,6,2,9,0.02
2013-7-18,87.5,75.3,69.1,69.3,65.5,60.6,92,74,42,30.15,30.07,10,3,13,0.13
2013-7-19,79.8,69.6,64.3,72.4,65.8,62.2,94,88,75,30.12,30.03,14,3,14,0.96
2013-7-20,79.0,71.6,64.2,72.4,67.4,62.4,94,87,78,30.06,29.99,7,1,10,0.00
2013-7-21,84.1,74.7,64.8,72.8,67.7,63.0,95,80,55,30.09,30.03,6,1,12,0.01
2013-7-22,89.6,77.3,66.7,71.2,67.2,61.1,91,73,41,30.09,29.99,9,2,14,0.00
2013-7-23,88.5,76.2,69.1,74.9,68.4,63.6,89,78,50,30.04,29.91,13,4,17,0.08
2013-7-24,87.9,77.4,67.6,70.2,66.0,63.4,88,69,50,30.06,29.99,11,3,14,0.00
2013-7-25,93.9,80.3,70.1,72.9,64.9,-99.9,89,64,34,30.05,29.95,11,4,16,0.00
2013-7-26,91.8,82.6,74.5,73.5,67.8,59.2,84,63,35,29.98,29.93,14,6,23,0.00
2013-7-27,87.9,79.7,70.4,76.5,72.2,66.3,92,79,62,29.94,29.77,13,5,22,0.00
2013-7-28,92.0,81.4,74.7,76.3,71.1,62.1,90,73,44,29.98,29.83,13,5,19,0.00
2013-7-29,82.4,76.3,68.1,71.4,62.2,55.0,86,63,39,30.27,29.97,13,4,16,0.04
2013-7-30,83.6,76.1,66.3,70.2,63.8,58.6,84,67,53,30.29,30.17,7,3,10,0.00
2013-7-31,85.4,77.2,66.7,67.2,63.6,58.9,88,65,41,30.20,30.05,8,3,10,0.00
2013-8-1,91.3,78.2,67.5,70.4,65.5,60.8,89,68,37,30.07,29.98,15,5,21,0.00
2013-8-2,91.4,81.2,69.5,70.2,64.7,59.6,86,59,36,30.05,29.99,16,9,26,0.00
2013-8-3,82.7,76.7,69.3,71.8,68.1,63.6,88,75,59,30.16,30.03,12,4,14,0.00
2013-8-4,87.2,78.2,69.2,72.2,68.8,64.6,93,75,50,30.17,30.06,11,3,15,0.00
2013-8-5,92.3,80.8,69.1,71.9,66.6,61.3,92,66,36,30.10,29.95,16,5,24,0.00
2013-8-6,86.6,79.2,70.9,74.2,71.6,67.5,90,78,58,30.06,29.86,12,4,19,0.00
2013-8-7,81.7,76.1,72.1,72.9,69.5,65.9,94,81,61,29.93,29.80,5,2,10,0.01
2013-8-8,81.3,73.6,63.1,68.5,57.2,51.6,89,59,37,30.17,29.89,14,7,20,0.11
2013-8-9,86.0,76.2,63.1,65.7,58.4,53.8,83,56,35,30.20,30.14,11,5,20,0.00
2013-8-10,88.6,78.5,70.7,65.4,59.2,52.2,70,53,30,30.20,30.10,16,7,25,0.00
2013-8-11,88.8,78.8,68.5,64.5,58.7,54.2,73,52,32,30.15,30.04,7,3,11,0.00
2013-8-12,82.3,75.4,67.1,71.9,64.4,59.0,88,70,51,30.09,29.98,7,2,11,0.00
2013-8-13,87.1,76.5,69.6,69.4,65.8,61.6,88,71,47,30.10,30.00,13,4,20,0.00
2013-8-14,90.0,77.5,67.0,67.2,60.6,47.3,83,59,24,30.11,30.05,10,3,13,0.00
2013-8-15,78.4,74.1,65.2,64.6,59.2,50.4,76,60,39,30.14,30.09,7,3,11,0.00
2013-8-16,84.2,73.6,63.4,71.8,66.1,59.1,88,78,65,30.14,30.04,9,3,14,0.00
2013-8-17,83.0,75.1,68.6,71.3,66.0,60.1,92,75,48,30.14,30.06,9,3,11,0.07
2013-8-18,86.9,75.5,65.1,72.4,66.7,61.9,91,75,52,30.10,30.04,10,4,16,0.00
2013-8-19,82.7,75.5,69.9,70.9,67.6,52.0,92,78,43,30.20,30.06,12,3,16,0.02
2013-8-20,84.6,77.8,70.9,64.5,55.9,49.7,58,47,35,30.21,30.11,14,6,20,0.00
2013-8-21,80.0,71.9,62.3,66.4,60.1,51.9,86,68,40,30.17,30.08,10,3,13,0.00
2013-8-22,85.2,73.1,62.4,69.8,65.2,60.0,92,78,57,30.10,29.95,15,5,24,0.00
2013-8-23,82.6,76.3,70.5,71.0,69.5,67.2,92,80,66,30.05,29.98,8,3,10,0.00
2013-8-24,81.2,72.2,65.0,70.4,66.9,62.0,94,84,60,30.07,29.98,11,2,16,0.85
2013-8-25,77.4,70.3,65.6,65.1,60.0,55.4,94,71,57,30.02,29.91,8,4,11,0.00
2013-8-26,74.8,68.6,64.1,63.6,61.7,58.8,93,79,59,29.97,29.92,7,2,8,0.00
2013-8-27,79.6,69.1,64.0,65.6,61.7,56.8,90,78,48,30.04,29.94,8,4,11,0.02
2013-8-28,79.9,71.3,65.6,64.2,62.0,57.3,88,74,47,30.09,30.02,8,3,13,0.00
2013-8-29,80.5,71.8,63.7,64.9,60.2,56.7,88,68,50,30.15,30.08,7,2,10,0.00
2013-8-30,83.3,75.2,64.1,61.2,53.7,49.4,70,48,36,30.16,30.09,11,4,16,0.00
2013-8-31,85.8,77.7,71.6,58.6,52.1,49.8,48,41,30,30.20,30.12,12,7,17,0.00
2013-9-1,84.9,76.1,63.7,61.6,55.9,50.5,72,51,37,30.20,30.14,11,4,15,0.00
2013-9-2,83.1,75.8,64.6,59.9,54.5,47.1,75,49,29,30.26,30.18,11,4,12,0.00
2013-9-3,79.0,69.5,59.1,64.2,54.8,49.1,85,61,42,30.29,30.21,7,2,10,0.00
2013-9-4,85.4,70.8,59.1,69.0,62.1,56.2,91,76,46,30.26,30.11,12,4,15,0.00
2013-9-5,83.7,71.5,61.9,69.2,61.4,52.0,93,74,34,30.12,29.94,10,2,13,0.00
2013-9-6,82.1,70.7,60.5,70.4,62.5,55.3,87,76,57,29.98,29.90,11,3,13,0.00
2013-9-7,80.4,70.2,65.0,70.6,65.9,62.8,93,87,68,30.07,29.98,12,3,12,0.32
2013-9-8,73.1,67.4,60.9,64.4,62.1,59.5,95,84,69,30.24,30.07,5,1,9,0.02
2013-9-9,74.3,67.7,61.7,61.7,59.0,56.8,84,74,61,30.27,30.20,6,2,9,0.00
2013-9-10,73.3,66.1,59.3,65.6,60.4,57.1,93,83,63,30.22,30.10,3,1,6,0.20
2013-9-11,71.7,65.2,59.7,60.3,55.7,49.1,93,73,50,30.18,30.11,8,1,9,0.08
2013-9-12,73.3,67.8,62.8,56.6,52.1,47.8,66,57,49,30.22,30.15,10,4,16,0.00
2013-9-13,76.2,67.2,58.5,64.3,58.8,54.5,90,75,60,30.26,30.20,7,2,10,0.00
2013-9-14,81.5,70.3,60.2,70.3,64.5,57.9,93,82,65,30.24,29.98,7,2,11,0.00
2013-9-15,71.3,67.2,62.2,66.5,60.3,54.7,92,79,65,30.07,29.97,7,2,8,0.17
2013-9-16,75.7,65.2,56.0,65.6,58.0,51.2,88,78,68,30.06,29.85,5,2,9,0.00
2013-9-17,72.5,66.9,63.7,61.4,54.9,49.0,89,66,50,30.01,29.89,12,4,16,0.00
2013-9-18,77.9,67.5,57.5,64.2,59.2,54.7,92,76,50,30.02,29.90,6,2,7,0.00
2013-9-19,79.7,69.8,62.1,61.6,56.2,52.4,90,64,42,30.02,29.92,11,6,17,0.00
2013-9-20,79.9,71.3,59.4,62.5,57.5,51.3,82,63,45,30.16,30.03,10,4,10,0.00
2013-9-21,79.3,71.6,60.8,61.4,56.9,50.8,84,61,37,30.26,30.16,9,4,9,0.00
2013-9-22,74.8,65.8,56.9,61.4,57.3,53.5,89,75,55,30.31,30.26,6,2,9,0.00
2013-9-23,78.2,65.5,54.1,64.3,58.1,50.6,89,78,54,30.26,30.10,13,4,18,0.00
2013-9-24,80.4,69.7,58.4,67.1,62.4,56.1,92,79,57,30.11,29.98,11,4,14,0.00
2013-9-25,78.1,71.6,64.0,70.3,66.5,61.9,94,84,72,30.01,29.94,7,2,8,0.00
2013-9-26,82.7,71.4,61.2,70.7,65.9,59.1,95,84,65,30.03,29.94,8,2,9,0.00
2013-9-27,84.8,71.1,64.8,71.2,65.5,62.4,95,84,49,29.99,29.88,11,2,14,0.00
2013-9-28,81.0,72.0,65.6,71.0,66.2,62.7,94,83,67,29.89,29.68,14,4,17,0.00
2013-9-29,75.1,69.8,62.9,66.1,63.3,60.8,94,80,68,29.80,29.65,8,4,9,0.29
2013-9-30,74.7,66.1,59.0,66.9,61.8,57.6,96,86,70,29.82,29.72,5,2,9,0.01
2013-10-1,75.3,68.3,60.3,69.2,63.9,57.8,94,86,71,29.85,29.77,6,2,9,0.00
2013-10-2,71.6,68.7,64.4,69.5,67.0,63.1,97,94,90,30.00,29.84,6,2,8,0.01
2013-10-3,76.0,72.0,70.4,70.7,68.8,67.0,94,90,83,30.13,29.98,11,6,19,0.00
2013-10-4,72.6,69.7,64.4,69.0,66.9,62.6,94,91,87,30.13,29.97,11,5,19,0.42
2013-10-5,76.8,68.2,59.5,63.8,59.7,56.6,96,76,52,30.23,30.07,9,2,11,0.02
2013-10-6,75.4,68.0,62.2,60.7,54.0,50.6,85,62,44,30.22,30.16,16,8,21,0.00
2013-10-7,73.2,64.6,55.6,59.9,54.6,49.7,92,71,47,30.23,30.17,7,3,9,0.00
2013-10-8,72.1,64.8,57.9,58.8,56.4,54.0,90,75,56,30.26,30.20,6,2,10,0.00
2013-10-9,71.8,66.1,63.5,57.9,53.6,51.2,77,65,50,30.25,30.13,9,3,11,0.00
2013-10-10,66.6,62.0,55.5,58.5,53.1,47.0,88,73,60,30.14,29.93,12,3,18,0.14
2013-10-11,55.7,53.3,51.7,49.4,44.7,40.7,90,73,60,30.11,29.97,14,4,19,0.11
2013-10-12,68.3,56.0,48.3,54.7,46.4,-99.9,93,75,53,30.14,30.05,12,4,20,0.00
2013-10-13,66.7,59.1,49.8,58.4,51.6,45.7,88,77,56,30.19,30.13,6,2,10,0.00
2013-10-14,69.1,60.5,53.3,60.3,55.8,51.3,93,85,63,30.18,30.11,6,1,11,0.00
2013-10-15,69.2,63.4,59.0,63.3,59.9,57.0,94,88,80,30.15,29.98,4,1,7,0.00
2013-10-16,76.8,65.8,58.0,63.0,59.6,56.3,94,81,60,30.15,30.04,6,2,8,0.00
2013-10-17,72.1,65.8,58.9,63.8,60.0,56.3,92,82,68,30.18,30.08,6,2,9,0.00
2013-10-18,70.9,65.6,61.0,65.4,61.8,58.3,92,87,81,30.09,29.95,5,1,9,0.00
2013-10-19,76.8,67.5,59.2,69.1,63.8,57.5,96,88,73,30.10,30.00,14,5,20,0.01
2013-10-20,81.4,70.7,63.3,67.8,65.0,61.8,97,83,59,30.12,30.03,12,-8,12,0.00
2013-10-21,78.9,68.8,60.2,66.9,63.7,58.8,96,85,65,30.13,30.00,13,5,19,0.01
2013-10-22,80.3,71.4,65.1,68.8,65.4,62.7,95,82,59,30.03,29.82,15,7,21,0.00
2013-10-23,81.9,70.6,62.8,66.0,63.1,54.0,88,78,39,30.06,29.87,12,5,17,0.00
2013-10-24,76.3,65.6,57.6,65.0,59.7,54.7,90,82,56,30.09,29.98,14,4,20,0.00
2013-10-25,75.8,70.3,67.2,68.3,66.2,64.3,94,87,76,30.11,30.02,12,6,20,0.00
2013-10-26,73.2,67.7,61.0,68.9,65.0,59.0,95,91,86,30.17,30.10,4,1,7,0.00
2013-10-27,75.9,67.3,60.3,67.9,63.6,57.8,96,88,72,30.19,30.09,6,1,8,0.01
2013-10-28,86.8,68.3,60.2,63.5,55.3,48.1,92,67,30,30.11,29.93,10,4,14,0.00
2013-10-29,64.3,61.4,58.3,55.3,48.4,44.3,82,63,50,30.17,30.00,10,5,16,0.00
2013-10-30,64.8,60.1,56.8,46.2,39.9,33.5,63,48,32,30.21,30.10,17,10,21,0.00
2013-10-31,69.1,61.0,55.4,47.5,39.2,30.2,55,45,27,30.26,30.18,11,4,15,0.00
2013-11-1,70.1,57.7,47.5,50.5,43.5,38.5,76,60,41,30.25,30.08,8,2,11,0.00
2013-11-2,66.9,58.3,51.2,56.8,50.9,44.6,89,77,58,30.09,29.98,6,1,8,0.00
2013-11-3,66.1,58.6,51.9,54.4,50.7,46.8,92,76,60,30.11,29.98,9,2,11,0.00
2013-11-4,62.5,55.9,51.0,54.6,50.8,47.0,91,83,71,30.04,29.60,9,2,9,0.00
2013-11-5,69.8,57.6,49.8,55.2,50.1,46.3,92,77,52,29.91,29.72,9,2,15,0.00
2013-11-6,75.8,63.0,54.1,62.2,55.6,49.2,92,78,57,30.13,29.90,9,2,12,0.00
2013-11-7,73.6,62.6,54.0,62.1,57.2,52.3,95,84,59,30.13,30.03,9,2,12,0.00
2013-11-8,66.4,59.9,53.4,62.1,56.9,49.0,97,90,67,30.08,29.95,8,2,10,0.02
2013-11-9,65.3,60.5,53.9,50.8,45.9,38.9,78,59,45,30.20,30.07,10,4,17,0.00
2013-11-10,66.0,56.9,47.6,53.6,46.6,42.1,83,69,49,30.16,30.02,20,5,31,0.00
2013-11-11,67.0,60.2,56.3,45.4,31.1,15.7,61,36,14,30.22,30.13,25,16,40,0.00
2013-11-12,69.2,64.4,60.3,55.1,44.6,16.6,72,51,17,30.18,30.12,16,8,27,0.00
2013-11-13,67.6,64.7,59.4,54.7,52.9,50.3,73,66,58,30.20,30.12,15,7,20,0.00
2013-11-14,65.6,58.1,49.7,50.7,42.2,29.2,82,58,28,30.24,30.16,22,8,40,0.00
2013-11-15,56.2,50.6,47.1,38.6,33.8,30.1,69,53,39,30.21,30.02,22,13,40,0.00
2013-11-16,57.4,53.0,46.4,50.1,44.4,36.5,90,73,59,30.20,30.11,11,7,21,0.36
2013-11-17,59.5,55.7,50.9,57.6,53.4,48.6,95,92,86,30.12,29.84,10,5,17,2.20
2013-11-18,58.4,55.1,50.7,56.5,53.0,48.6,95,93,87,29.85,29.54,18,8,29,1.87
2013-11-19,60.2,53.9,49.2,49.5,44.8,34.7,91,73,51,29.85,29.51,20,14,30,0.28
2013-11-20,51.1,46.5,37.6,35.9,27.9,20.4,74,50,31,29.97,29.84,20,12,30,0.00
2013-11-21,54.1,46.1,37.7,40.8,34.8,23.6,84,65,41,29.89,29.57,16,4,20,0.00
2013-11-22,50.3,45.5,40.8,39.1,32.3,26.5,88,61,41,29.80,29.54,21,12,28,0.00
2013-11-23,50.6,46.7,43.1,33.3,30.6,26.5,66,54,44,29.85,29.74,27,14,36,0.00
2013-11-24,53.8,50.9,48.9,37.3,34.6,31.3,58,53,49,30.06,29.83,20,16,37,0.00
2013-11-25,56.2,50.6,47.4,36.6,31.3,27.3,62,48,33,30.24,30.06,21,14,31,0.00
2013-11-26,49.9,46.7,43.4,31.9,28.5,24.2,58,49,41,30.33,30.20,21,13,33,0.00
2013-11-27,46.9,42.8,36.3,32.6,28.1,25.0,78,57,45,30.49,30.25,16,6,23,0.02
2013-11-28,50.3,40.4,31.6,32.8,28.2,24.9,80,62,43,30.49,30.38,5,1,5,0.00
2013-11-29,50.1,40.2,32.0,30.4,27.5,24.5,79,62,40,30.46,30.30,4,1,6,0.00
2013-11-30,47.9,40.5,33.7,42.8,30.0,-99.9,88,74,60,30.30,29.97,14,6,22,0.07
2013-12-1,55.3,50.1,43.6,37.1,31.3,24.5,69,49,36,30.16,30.07,11,7,20,0.00
2013-12-2,49.7,45.0,40.2,37.5,33.1,28.5,71,63,52,30.31,30.09,10,1,14,0.00
2013-12-3,61.7,49.3,41.5,50.3,39.2,34.5,81,69,39,30.40,30.31,3,1,7,0.00
2013-12-4,63.7,46.5,34.2,46.0,36.4,31.0,88,70,33,30.39,30.31,6,1,7,0.00
2013-12-5,60.1,48.3,40.1,46.1,36.7,29.6,89,65,43,30.36,30.28,6,2,9,0.00
2013-12-6,59.0,47.5,36.4,42.8,36.9,33.2,91,69,43,30.37,30.26,18,6,26,0.01
2013-12-7,62.4,49.6,38.5,47.1,37.9,31.8,83,66,32,30.36,30.24,10,3,13,0.00
2013-12-8,54.2,43.2,35.4,42.3,37.3,33.0,92,80,54,30.50,30.36,3,0,5,0.00
2013-12-9,52.4,42.1,33.9,48.6,39.1,32.1,93,89,77,30.53,30.47,2,0,5,0.02
2013-12-10,51.5,46.8,41.8,47.8,44.1,39.9,95,90,83,30.61,30.50,2,0,3,0.00
2013-12-11,58.6,41.2,43.1,47.1,17.1,-99.9,91,64,64,30.62,30.50,9,2,15,0.00
2013-12-12,54.5,44.8,35.9,48.2,40.5,33.5,93,85,70,30.51,30.41,2,0,4,0.00
2013-12-13,54.6,44.0,35.6,50.5,40.8,33.8,94,89,77,30.42,30.30,2,0,7,0.02
2013-12-14,58.6,47.3,40.5,46.9,42.0,38.4,95,83,62,30.55,30.43,5,1,8,0.01
2013-12-15,58.9,46.2,38.0,49.1,41.3,36.1,93,84,60,30.62,30.49,2,0,6,0.01
2013-12-16,57.2,47.0,38.7,49.6,43.4,36.3,94,88,73,30.61,30.52,3,0,6,0.00
2013-12-17,59.0,52.0,45.2,52.9,48.4,43.0,93,88,78,30.53,30.37,12,3,17,0.00
2013-12-18,59.9,52.5,43.9,52.3,47.4,41.8,94,83,68,30.37,30.12,13,3,20,0.00
2013-12-19,56.2,53.7,49.9,50.6,47.9,44.3,94,81,69,30.12,29.88,16,6,33,0.22
2013-12-20,56.2,53.4,49.0,48.8,36.7,26.7,94,56,34,30.52,29.94,17,10,23,0.04
2013-12-21,56.2,49.6,41.2,46.1,36.0,29.4,81,60,40,30.59,30.48,6,2,9,0.00
2013-12-22,57.4,45.6,36.9,45.4,38.1,32.2,87,76,55,30.50,30.39,6,1,9,0.00
2013-12-23,57.7,46.3,37.1,46.2,38.8,34.2,90,76,54,30.43,30.11,11,3,13,0.00
2013-12-24,58.2,55.0,50.1,51.2,47.3,41.6,80,75,65,30.11,29.65,16,9,23,0.00
2013-12-25,61.5,57.3,51.9,51.0,47.3,37.3,77,69,54,29.65,29.28,19,10,27,0.00
2013-12-26,58.3,50.3,40.9,39.8,36.6,32.0,84,60,39,29.92,29.36,19,7,28,0.00
2013-12-27,57.8,46.6,37.7,44.2,37.1,31.1,86,70,45,29.99,29.83,14,2,18,0.00
2013-12-28,61.3,50.1,40.7,50.9,42.1,35.6,91,75,52,30.11,29.77,8,3,12,0.02
2013-12-29,55.7,48.2,41.5,42.0,38.7,34.8,87,70,56,30.42,30.11,8,1,8,0.01
2013-12-30,52.7,43.1,34.4,44.5,38.2,32.0,91,83,67,30.43,30.29,4,2,6,0.00
2013-12-31,50.3,41.6,33.8,42.8,37.2,31.8,93,85,73,30.29,30.06,5,1,6,0.01
2014-1-1,57.7,47.2,37.2,47.6,40.3,34.2,89,78,59,30.13,29.89,9,3,17,0.00
2014-1-2,60.5,55.1,48.3,49.3,45.9,43.1,84,71,59,29.99,29.83,10,3,18,0.00